| time (UTC) | temp C | wind direction | speed KPH | gust KPH | rain 1hr cm | rain 24hr cm | rain mn cm | humidity % | barometer mb |
| 20260508050352 | 13 | 291 | 6.4 | 9.7 | 0.00 | 0.00 | 0.00 | 79 | 997.8 |
| 20260508045351 | 13 | 295 | 4.8 | 6.4 | 0.00 | 0.00 | 0.00 | 79 | 997.7 |
| 20260508044351 | 12 | 298 | 9.7 | 11.3 | 0.00 | 0.00 | 0.00 | 79 | 997.6 |
| 20260508043351 | 12 | 301 | 6.4 | 6.4 | 0.00 | 0.00 | 0.00 | 79 | 997.5 |
| 20260508042351 | 12 | 282 | 4.8 | 6.4 | 0.00 | 0.00 | 0.00 | 79 | 997.6 |
| 20260508041351 | 12 | 291 | 4.8 | 6.4 | 0.00 | 0.00 | 0.00 | 79 | 997.5 |
| 20260508040351 | 12 | 281 | 3.2 | 4.8 | 0.00 | 0.00 | 0.00 | 79 | 997.5 |
| 20260508035350 | 12 | 284 | 6.4 | 8.0 | 0.00 | 0.00 | 0.00 | 79 | 997.4 |
| 20260508034351 | 12 | 306 | 6.4 | 9.7 | 0.00 | 0.00 | 0.00 | 79 | 997.4 |
| 20260508033351 | 12 | 278 | 3.2 | 6.4 | 0.00 | 0.00 | 0.00 | 78 | 997.5 |
| 20260508032350 | 12 | 298 | 6.4 | 8.0 | 0.00 | 0.00 | 0.00 | 78 | 997.5 |
| 20260508031350 | 13 | 311 | 8.0 | 9.7 | 0.00 | 0.00 | 0.00 | 78 | 997.5 |
| 20260508030349 | 12 | 312 | 8.0 | 9.7 | 0.00 | 0.00 | 0.00 | 78 | 997.5 |
| 20260508025350 | 12 | 277 | 6.4 | 8.0 | 0.00 | 0.00 | 0.00 | 78 | 997.4 |
| 20260508024350 | 13 | 306 | 6.4 | 9.7 | 0.00 | 0.00 | 0.00 | 78 | 997.4 |
| 20260508023349 | 13 | 303 | 6.4 | 8.0 | 0.00 | 0.00 | 0.00 | 78 | 997.6 |
| 20260508022350 | 13 | 297 | 4.8 | 8.0 | 0.00 | 0.00 | 0.00 | 78 | 997.6 |
| 20260508021349 | 13 | 291 | 6.4 | 9.7 | 0.00 | 0.00 | 0.00 | 77 | 997.7 |
| 20260508020350 | 13 | 286 | 3.2 | 6.4 | 0.00 | 0.00 | 0.00 | 78 | 997.6 |
| 20260508015350 | 13 | 284 | 4.8 | 9.7 | 0.00 | 0.00 | 0.00 | 77 | 997.7 |
| 20260508014350 | 13 | 287 | 3.2 | 9.7 | 0.00 | 0.00 | 0.00 | 77 | 997.9 |
| 20260508013349 | 13 | 279 | 4.8 | 8.0 | 0.00 | 0.00 | 0.00 | 77 | 998.1 |
| 20260508012350 | 13 | 291 | 4.8 | 8.0 | 0.00 | 0.00 | 0.00 | 76 | 998.0 |
| 20260508011350 | 13 | 303 | 4.8 | 6.4 | 0.00 | 0.00 | 0.00 | 76 | 998.1 |
| 20260508010351 | 13 | 303 | 3.2 | 8.0 | 0.00 | 0.08 | 0.00 | 76 | 998.2 |
| 20260508005351 | 13 | 284 | 6.4 | 9.7 | 0.00 | 0.08 | 0.00 | 76 | 998.3 |
| 20260508004349 | 13 | 297 | 8.0 | 16.1 | 0.00 | 0.08 | 0.00 | 76 | 998.3 |
| 20260508003350 | 13 | 293 | 6.4 | 8.0 | 0.00 | 0.08 | 0.00 | 76 | 998.4 |
| 20260508002349 | 13 | 292 | 6.4 | 9.7 | 0.00 | 0.08 | 0.00 | 76 | 998.5 |
| 20260508001350 | 13 | 298 | 6.4 | 9.7 | 0.00 | 0.08 | 0.00 | 76 | 998.6 |
| 20260508000350 | 13 | 296 | 6.4 | 20.9 | 0.00 | 0.08 | 0.00 | 76 | 998.6 |
| 20260507235350 | 13 | 277 | 6.4 | 8.0 | 0.00 | 0.08 | 0.00 | 76 | 998.6 |
| 20260507234349 | 13 | 283 | 3.2 | 4.8 | 0.00 | 0.08 | 0.00 | 75 | 998.7 |
| 20260507233350 | 13 | 275 | 4.8 | 3.2 | 0.00 | 0.08 | 0.00 | 76 | 998.8 |
| 20260507232349 | 13 | 296 | 6.4 | 9.7 | 0.00 | 0.08 | 0.00 | 76 | 999.0 |
| 20260507231349 | 13 | 280 | 4.8 | 6.4 | 0.00 | 0.08 | 0.00 | 76 | 999.1 |
| 20260507230348 | 13 | 290 | 6.4 | 16.1 | 0.00 | 0.08 | 0.00 | 76 | 999.1 |
| 20260507225349 | 13 | 296 | 4.8 | 8.0 | 0.00 | 0.08 | 0.00 | 76 | 999.4 |
| 20260507224349 | 14 | 292 | 6.4 | 6.4 | 0.00 | 0.08 | 0.00 | 75 | 999.5 |
| 20260507223348 | 14 | 295 | 4.8 | 4.8 | 0.00 | 0.08 | 0.00 | 75 | 999.5 |
| 20260507222349 | 14 | 285 | 1.6 | 3.2 | 0.00 | 0.08 | 0.00 | 75 | 999.7 |
| 20260507221350 | 14 | 268 | 4.8 | 6.4 | 0.00 | 0.08 | 0.00 | 75 | 999.7 |
| 20260507220348 | 14 | 282 | 3.2 | 3.2 | 0.00 | 0.08 | 0.00 | 74 | 999.6 |
| 20260507215348 | 14 | 266 | 4.8 | 4.8 | 0.00 | 0.08 | 0.08 | 74 | 999.6 |
| 20260507214348 | 14 | 259 | 4.8 | 6.4 | 0.00 | 0.08 | 0.08 | 74 | 999.5 |
| 20260507213349 | 15 | 270 | 1.6 | 4.8 | 0.00 | 0.08 | 0.08 | 73 | 999.6 |
| 20260507212347 | 15 | 270 | 0.0 | 1.6 | 0.00 | 0.08 | 0.08 | 72 | 999.7 |
| 20260507211348 | 15 | 261 | 1.6 | 6.4 | 0.00 | 0.08 | 0.08 | 71 | 999.6 |
| 20260507210348 | 15 | 254 | 3.2 | 6.4 | 0.00 | 0.08 | 0.08 | 71 | 999.6 |
| 20260507205347 | 15 | 251 | 6.4 | 8.0 | 0.00 | 0.08 | 0.08 | 71 | 999.6 |
| 20260507204348 | 16 | 250 | 3.2 | 6.4 | 0.00 | 0.08 | 0.08 | 70 | 999.7 |
| 20260507203348 | 16 | 252 | 3.2 | 4.8 | 0.00 | 0.08 | 0.08 | 70 | 999.6 |
| 20260507202347 | 16 | 248 | 6.4 | 9.7 | 0.00 | 0.08 | 0.08 | 70 | 999.6 |
| 20260507201348 | 16 | 248 | 3.2 | 6.4 | 0.00 | 0.08 | 0.08 | 70 | 999.6 |
| 20260507200348 | 16 | 248 | 4.8 | 6.4 | 0.00 | 0.08 | 0.08 | 71 | 999.5 |
| 20260507195349 | 16 | 248 | 3.2 | 4.8 | 0.00 | 0.08 | 0.08 | 70 | 999.6 |
| 20260507194347 | 16 | 262 | 3.2 | 8.0 | 0.00 | 0.08 | 0.08 | 68 | 999.5 |
| 20260507193347 | 16 | 248 | 3.2 | 6.4 | 0.00 | 0.08 | 0.08 | 68 | 999.5 |
| 20260507192346 | 17 | 254 | 3.2 | 6.4 | 0.00 | 0.08 | 0.08 | 68 | 999.4 |
| 20260507191347 | 17 | 265 | 3.2 | 3.2 | 0.00 | 0.08 | 0.08 | 67 | 999.3 |
| 20260507190347 | 17 | 248 | 1.6 | 1.6 | 0.00 | 0.08 | 0.08 | 66 | 999.2 |
| 20260507185347 | 17 | 264 | 3.2 | 4.8 | 0.00 | 0.08 | 0.08 | 64 | 999.2 |
| 20260507184347 | 18 | 277 | 1.6 | 3.2 | 0.00 | 0.08 | 0.08 | 62 | 999.2 |
| 20260507183347 | 18 | 278 | 1.6 | 3.2 | 0.00 | 0.08 | 0.08 | 59 | 999.2 |
| 20260507182346 | 18 | 270 | 0.0 | 1.6 | 0.00 | 0.08 | 0.08 | 57 | 999.3 |
| 20260507181346 | 19 | 281 | 1.6 | 1.6 | 0.00 | 0.08 | 0.08 | 55 | 999.3 |
| 20260507180346 | 20 | 226 | 0.0 | 1.6 | 0.00 | 0.08 | 0.08 | 53 | 999.2 |
| 20260507175348 | 20 | 270 | 0.0 | 3.2 | 0.00 | 0.08 | 0.08 | 52 | 999.0 |
| 20260507174347 | 21 | 274 | 0.0 | 1.6 | 0.00 | 0.08 | 0.08 | 50 | 999.1 |
| 20260507173348 | 21 | 292 | 1.6 | 3.2 | 0.00 | 0.08 | 0.08 | 49 | 999.1 |
| 20260507172348 | 21 | 278 | 1.6 | 3.2 | 0.00 | 0.08 | 0.08 | 48 | 999.1 |
| 20260507171348 | 21 | 295 | 1.6 | 3.2 | 0.00 | 0.08 | 0.08 | 47 | 998.9 |
| 20260507170347 | 21 | 285 | 3.2 | 3.2 | 0.00 | 0.08 | 0.08 | 45 | 999.0 |
| 20260507165348 | 21 | 287 | 3.2 | 4.8 | 0.00 | 0.08 | 0.08 | 45 | 998.9 |
| 20260507164347 | 22 | 278 | 3.2 | 9.7 | 0.00 | 0.08 | 0.08 | 45 | 999.0 |
| 20260507163349 | 22 | 297 | 3.2 | 6.4 | 0.00 | 0.08 | 0.08 | 42 | 999.0 |
| 20260507162348 | 23 | 297 | 3.2 | 4.8 | 0.00 | 0.08 | 0.08 | 42 | 999.0 |
| 20260507161348 | 22 | 245 | 0.0 | 0.0 | 0.00 | 0.08 | 0.08 | 42 | 998.9 |
| 20260507160348 | 22 | 24 | 0.0 | 1.6 | 0.00 | 0.08 | 0.08 | 41 | 998.9 |
| 20260507155347 | 22 | 322 | 4.8 | 6.4 | 0.00 | 0.08 | 0.08 | 42 | 999.0 |
| 20260507154349 | 23 | 311 | 8.0 | 12.9 | 0.00 | 0.08 | 0.08 | 43 | 999.0 |
| 20260507153347 | 23 | 281 | 3.2 | 3.2 | 0.00 | 0.08 | 0.08 | 42 | 999.2 |
| 20260507152348 | 23 | 336 | 3.2 | 4.8 | 0.00 | 0.08 | 0.08 | 41 | 999.1 |
| 20260507151346 | 23 | 274 | 4.8 | 11.3 | 0.00 | 0.08 | 0.08 | 41 | 999.3 |
| 20260507150346 | 23 | 302 | 1.6 | 6.4 | 0.00 | 0.08 | 0.08 | 41 | 999.2 |
| 20260507145348 | 23 | 288 | 4.8 | 8.0 | 0.00 | 0.08 | 0.08 | 41 | 999.3 |
| 20260507144346 | 23 | 321 | 3.2 | 8.0 | 0.00 | 0.08 | 0.08 | 41 | 999.4 |
| 20260507143347 | 23 | 295 | 6.4 | 6.4 | 0.00 | 0.08 | 0.08 | 44 | 999.5 |
| 20260507142348 | 23 | 211 | 1.6 | 3.2 | 0.00 | 0.08 | 0.08 | 41 | 999.5 |
| 20260507141346 | 23 | 268 | 1.6 | 9.7 | 0.00 | 0.08 | 0.08 | 40 | 999.6 |
| 20260507140347 | 22 | 255 | 8.0 | 16.1 | 0.00 | 0.08 | 0.08 | 43 | 999.8 |
| 20260507135351 | 22 | 251 | 8.0 | 11.3 | 0.00 | 0.08 | 0.08 | 46 | 999.9 |
| 20260507134350 | 22 | 300 | 3.2 | 6.4 | 0.00 | 0.08 | 0.08 | 45 | 1000.1 |
| 20260507133350 | 22 | 272 | 8.0 | 12.9 | 0.00 | 0.08 | 0.08 | 46 | 1000.3 |
| 20260507132351 | 22 | 250 | 4.8 | 12.9 | 0.00 | 0.08 | 0.08 | 49 | 1000.3 |
| 20260507131352 | 22 | 304 | 1.6 | 3.2 | 0.00 | 0.08 | 0.08 | 49 | 1000.4 |
| 20260507130351 | 21 | 191 | 3.2 | 12.9 | 0.00 | 0.08 | 0.08 | 49 | 1000.5 |
| 20260507125350 | 21 | 271 | 8.0 | 14.5 | 0.00 | 0.08 | 0.08 | 51 | 1000.7 |
| 20260507124350 | 21 | 262 | 3.2 | 8.0 | 0.00 | 0.08 | 0.08 | 50 | 1000.7 |
| 20260507123351 | 21 | 221 | 11.3 | 14.5 | 0.00 | 0.08 | 0.08 | 50 | 1000.5 |
| 20260507122351 | 21 | 273 | 1.6 | 4.8 | 0.00 | 0.08 | 0.08 | 57 | 1000.5 |
| 20260507121352 | 20 | 138 | 1.6 | 3.2 | 0.00 | 0.08 | 0.08 | 62 | 1000.6 |
| 20260507120350 | 20 | 114 | 4.8 | 8.0 | 0.00 | 0.08 | 0.08 | 63 | 1000.5 |
| 20260507115351 | 20 | 145 | 1.6 | 1.6 | 0.00 | 0.08 | 0.08 | 64 | 1000.6 |
| 20260507114350 | 20 | 117 | 4.8 | 6.4 | 0.00 | 0.08 | 0.08 | 64 | 1000.7 |
| 20260507113349 | 20 | 158 | 1.6 | 1.6 | 0.00 | 0.08 | 0.08 | 64 | 1000.8 |
| 20260507112349 | 20 | 83 | 3.2 | 3.2 | 0.00 | 0.08 | 0.08 | 64 | 1000.8 |
| 20260507111350 | 20 | 135 | 0.0 | 1.6 | 0.00 | 0.08 | 0.08 | 65 | 1000.8 |
| 20260507110350 | 19 | 212 | 4.8 | 6.4 | 0.00 | 0.08 | 0.08 | 65 | 1000.9 |
| 20260507105350 | 19 | 83 | 4.8 | 4.8 | 0.00 | 0.08 | 0.08 | 67 | 1001.0 |
| 20260507104349 | 19 | 84 | 4.8 | 8.0 | 0.00 | 0.08 | 0.08 | 68 | 1001.0 |
| 20260507103351 | 19 | 126 | 0.0 | 3.2 | 0.00 | 0.08 | 0.08 | 70 | 1001.1 |
| 20260507102349 | 19 | 79 | 3.2 | 8.0 | 0.00 | 0.08 | 0.08 | 70 | 1001.1 |
| 20260507101349 | 18 | 71 | 3.2 | 3.2 | 0.00 | 0.08 | 0.08 | 71 | 1001.1 |
| 20260507100350 | 18 | 52 | 1.6 | 3.2 | 0.00 | 0.08 | 0.08 | 72 | 1001.4 |
| 20260507095347 | 18 | 129 | 3.2 | 8.0 | 0.00 | 0.08 | 0.08 | 72 | 1001.3 |
| 20260507094348 | 18 | 125 | 1.6 | 6.4 | 0.00 | 0.08 | 0.08 | 73 | 1001.3 |
| 20260507093349 | 18 | 96 | 4.8 | 12.9 | 0.00 | 0.08 | 0.08 | 74 | 1001.2 |
| 20260507092347 | 18 | 107 | 1.6 | 4.8 | 0.00 | 0.08 | 0.08 | 75 | 1001.2 |
| 20260507091347 | 17 | 112 | 6.4 | 9.7 | 0.00 | 0.08 | 0.08 | 76 | 1001.3 |
| 20260507090347 | 17 | 108 | 8.0 | 9.7 | 0.00 | 0.08 | 0.08 | 76 | 1001.5 |
| 20260507085349 | 17 | 126 | 3.2 | 11.3 | 0.00 | 0.08 | 0.08 | 78 | 1001.5 |
| 20260507084347 | 16 | 128 | 4.8 | 4.8 | 0.00 | 0.08 | 0.08 | 79 | 1001.4 |
| 20260507083348 | 17 | 112 | 6.4 | 9.7 | 0.00 | 0.08 | 0.08 | 80 | 1001.5 |
| 20260507082348 | 17 | 135 | 4.8 | 4.8 | 0.00 | 0.08 | 0.08 | 81 | 1001.5 |
| 20260507081349 | 16 | 115 | 6.4 | 6.4 | 0.00 | 0.08 | 0.08 | 81 | 1001.5 |
| 20260507080348 | 16 | 111 | 3.2 | 3.2 | 0.00 | 0.08 | 0.08 | 82 | 1001.5 |
| 20260507075347 | 16 | 142 | 0.0 | 4.8 | 0.00 | 0.08 | 0.08 | 83 | 1001.6 |
| 20260507074347 | 16 | 113 | 8.0 | 11.3 | 0.00 | 0.08 | 0.08 | 85 | 1001.6 |
| 20260507073347 | 15 | 113 | 3.2 | 6.4 | 0.00 | 0.08 | 0.08 | 84 | 1001.6 |
| 20260507072347 | 15 | 124 | 3.2 | 3.2 | 0.00 | 0.08 | 0.08 | 83 | 1001.6 |
| 20260507071347 | 14 | 107 | 4.8 | 9.7 | 0.00 | 0.08 | 0.08 | 82 | 1001.5 |
| 20260507070347 | 14 | 125 | 3.2 | 3.2 | 0.00 | 0.08 | 0.08 | 81 | 1001.5 |
| 20260507065346 | 14 | 161 | 0.0 | 4.8 | 0.00 | 0.08 | 0.08 | 80 | 1001.3 |
| 20260507064346 | 14 | 98 | 1.6 | 3.2 | 0.00 | 0.08 | 0.08 | 79 | 1001.3 |
| 20260507063347 | 13 | 97 | 3.2 | 4.8 | 0.00 | 0.08 | 0.08 | 77 | 1001.2 |
| 20260507062346 | 13 | 135 | 3.2 | 4.8 | 0.00 | 0.08 | 0.08 | 76 | 1001.1 |
| 20260507061346 | 13 | 141 | 0.0 | 3.2 | 0.00 | 0.08 | 0.08 | 74 | 1001.1 |
| 20260507060347 | 14 | 136 | 4.8 | 8.0 | 0.00 | 0.08 | 0.08 | 72 | 1001.2 |
| 20260507055347 | 14 | 135 | 1.6 | 3.2 | 0.00 | 0.08 | 0.08 | 71 | 1001.2 |
| 20260507054345 | 14 | 134 | 1.6 | 9.7 | 0.00 | 0.08 | 0.08 | 69 | 1001.0 |
| 20260507053346 | 13 | 125 | 1.6 | 3.2 | 0.00 | 0.08 | 0.08 | 70 | 1001.0 |
| 20260507052346 | 13 | 149 | 0.0 | 1.6 | 0.00 | 0.08 | 0.08 | 70 | 1001.0 |
| 20260507051346 | 12 | 121 | 1.6 | 3.2 | 0.00 | 0.08 | 0.08 | 70 | 1000.9 |